ソーホー彗星

342P/SOHO (2000)

English version
Home page
Updated on September 6, 2016

---------------------------------------------------------------------

・ プロフィール

符号 342P/2000 O3

・ 軌道要素

Epoch 2000 Aug. 4.0 TT = JDT 2451760.5
T 2000 July 30.93748 TT                                 MPCW
q   0.0542340            (2000.0)            P               Q
n   0.18564272     Peri.   46.09530     -0.17636423     -0.96252623
a   3.0433421      Node    55.16655     +0.81580105     -0.26004050
e   0.9821795      Incl.   14.53542     +0.55078518     +0.07695580
P   5.31
From 208 observations 2000 July 30-2011 Mar. 10.  Nongravitational
     parameters A1 = +0.00, A2 = +0.0015.

---------------------------------------------------------------------

軌道要素はM.P.E.C. 2016-P77に掲載されたものです。

---------------------------------------------------------------------

Copyright(C) Seiichi Yoshida (comet@aerith.net). All rights reserved.